Torna al catalogo

SL-16 DEB

AttivoLEO
NORAD 22575·DEBRIS·🇷🇺 Russia

Lanciato Mar 26, 1993 da Baikonur Cosmodrome

Loading…

Prossimi Passaggi (prossime 24 ore)

TLE

AggiornatoSource: Space-Track

Epoca: Sep 14, 2026, 09:32 UTC

1 22575U 93016C   26257.39742142  .00000075  00000-0  10869-3 0  9993
2 22575  71.0042 121.3984 0203918  39.1698 134.6307 13.73470966676463

Traccia SL-16 DEB in tempo reale con AllMySat

Download on the App Store